Location: Azul
(36.7830°S, 59.8500°W)
Time: 01:14:16
(UTC-03:00)

STARS - Pass Details

Date: 01 November 2021
Orbit: 623 x 638 km, 98.2° (Epoch: 30 November)

Event Time Altitude Azimuth Distance (km) Brightness Sun altitude
Exits shadow 22:52:07 30° 228° (SW) 1,145 ? -32.2°
Drops below altitude 10° 22:54:39 10° 207° (SSW) 2,027 ? -32.5°
Sets 22:56:57 0° 200° (SSW) 2,942 ? -32.7°
